Weather History for South Lake Tahoe, CA

Change the Weather History Date:

Thursday, February 21, 2013

  Actual Average Record
Temperature  
Mean Temperature 28 °F 32 °F  
Max Temperature 38 °F 45 °F 59 °F (1982)
Min Temperature 17 °F 19 °F -5 °F (1975)
Degree Days  
Heating Degree Days 37 33  
Month to date heating degree days 717 725  
Since 1 July heating degree days 4788 5007  
Cooling Degree Days 0 0  
Month to date cooling degree days 0 0  
Year to date cooling degree days 0 0  
Moisture  
Dew Point 14 °F    
Average Humidity 55    
Maximum Humidity 80    
Minimum Humidity 29    
Precipitation  
Precipitation 0.12 in - 1.85 in (1936)
Month to date precipitation 0.19  
Year to date precipitation 0.90  
Sea Level Pressure  
Sea Level Pressure 30.00 in    
Wind  
Wind Speed 3 mph (ESE)    
Max Wind Speed 13 mph    
Max Gust Speed 26 mph    
Visibility 7 miles    
Events Fog , Snow    
T = Trace of Precipitation, MM = Missing Value Source: NWS Daily Summary

Daily Weather History Graph

Daily Weather History Graph

Search for Another Location

Airport:

Trip Planner

Search our weather history database for the weather conditions in past years. The results will help you decide how hot, cold, wet, or windy it might be!

Date:

Astronomy

Feb. 21, 2013 Rise Set
Actual Time 6:43 AM PST 5:44 PM PST
Civil Twilight 6:16 AM PST 6:11 PM PST
Nautical Twilight 5:45 AM PST 6:42 PM PST
Astronomical Twilight 5:14 AM PST 7:13 PM PST
Moon 2:05 PM PST (2/21) 3:49 AM PST (2/21)
Length of Visible Light 11h 55m
Length of Day
11h 01m
Waxing Gibbous, 84% of the Moon is Illuminated
Feb 21
Waxing Gibbous
Feb 25
Full
Mar 4
Last Quarter
Mar 11
New
Mar 19
First Quarter

Hourly Weather History & Observations

Time (PST) Temp. Windchill Dew Point Humidity Pressure Visibility Wind Dir Wind Speed Gust Speed Precip Events Conditions
12:53 AM 17.1 °F 11.7 °F 12.0 °F 81% 29.92 in 10.0 mi SSW 3.5 mph - N/A   Scattered Clouds
1:53 AM 21.0 °F - 14.0 °F 74% 29.89 in 10.0 mi Calm Calm - N/A   Mostly Cloudy
2:53 AM 23.0 °F - 16.0 °F 74% 29.91 in 10.0 mi Calm Calm - N/A   Overcast
3:53 AM 24.1 °F 19.7 °F 17.1 °F 75% 29.90 in 8.0 mi South 3.5 mph - 0.00 in Snow Light Snow
4:53 AM 26.1 °F - 16.0 °F 66% 29.92 in 10.0 mi Calm Calm - 0.00 in   Overcast
5:04 AM 26.6 °F 22.6 °F 17.6 °F 69% 29.91 in 3.0 mi NE 3.5 mph - 0.00 in Snow Light Snow
5:07 AM 24.8 °F 17.9 °F 17.6 °F 74% 29.92 in 1.5 mi NNE 5.8 mph - 0.00 in Snow Light Snow
5:11 AM 24.8 °F 16.9 °F 17.6 °F 74% 29.92 in 0.8 mi East 6.9 mph - 0.00 in Snow Light Snow
5:21 AM 24.8 °F 17.9 °F 19.4 °F 80% 29.92 in 0.2 mi Variable 5.8 mph - 0.02 in Snow Heavy Snow
5:34 AM 23.0 °F 18.4 °F 19.4 °F 86% 29.93 in 0.2 mi SE 3.5 mph - 0.08 in Fog , Snow Snow
5:47 AM 24.8 °F - 17.6 °F 74% 29.93 in 1.2 mi Calm Calm - 0.09 in Snow Light Snow
5:53 AM 24.1 °F 19.7 °F 18.0 °F 77% 29.98 in 1.5 mi South 3.5 mph - 0.10 in Snow Light Snow
6:06 AM 23.0 °F - 17.6 °F 80% 29.94 in 0.5 mi Calm Calm - 0.00 in Snow Snow
6:13 AM 23.0 °F - 17.6 °F 80% 29.95 in 0.5 mi Calm Calm - 0.01 in Snow Snow
6:24 AM 23.0 °F - 17.6 °F 80% 29.95 in 0.8 mi Calm Calm - 0.01 in Snow Light Snow
6:33 AM 23.0 °F - 17.6 °F 80% 29.95 in 1.8 mi Calm Calm - 0.02 in Snow Light Snow
6:38 AM 23.0 °F - 17.6 °F 80% 29.94 in 3.0 mi Calm Calm - 0.02 in Snow Light Snow
6:48 AM 21.2 °F 13.6 °F 15.8 °F 80% 29.93 in 8.0 mi SSW 5.8 mph - 0.02 in Snow Light Snow
6:53 AM 21.9 °F - 16.0 °F 78% 30.00 in 9.0 mi Calm Calm - 0.02 in   Mostly Cloudy
7:53 AM 24.1 °F 18.2 °F 10.0 °F 55% 30.01 in 10.0 mi Variable 4.6 mph - N/A   Clear
8:53 AM 25.0 °F 19.3 °F 10.0 °F 53% 30.06 in 10.0 mi South 4.6 mph - N/A   Clear
9:53 AM 28.9 °F 19.2 °F 10.9 °F 47% 30.07 in 10.0 mi NNE 11.5 mph 17.3 mph N/A   Clear
10:53 AM 30.0 °F 24.1 °F 10.0 °F 43% 30.09 in 10.0 mi ENE 5.8 mph - N/A   Partly Cloudy
11:53 AM 30.9 °F - 9.0 °F 40% 30.08 in 10.0 mi Calm Calm - N/A   Clear
12:53 PM 34.0 °F 31.0 °F 10.9 °F 38% 30.07 in 10.0 mi Variable 3.5 mph - N/A   Clear
1:53 PM 36.0 °F 29.6 °F 6.1 °F 29% 30.02 in 10.0 mi NNE 8.1 mph - N/A   Clear
2:53 PM 37.0 °F 33.3 °F 10.0 °F 33% 30.03 in 10.0 mi Variable 4.6 mph - N/A   Clear
3:53 PM 36.0 °F - 7.0 °F 30% 30.02 in 10.0 mi Calm Calm - N/A   Clear
4:53 PM 34.0 °F 31.0 °F 6.1 °F 31% 30.04 in 10.0 mi North 3.5 mph - N/A   Clear
5:53 PM 28.9 °F - 12.0 °F 49% 30.06 in 10.0 mi Calm Calm - N/A   Clear
7:53 PM 25.0 °F - 12.9 °F 60% 30.12 in 10.0 mi Calm Calm - N/A   Clear
8:53 PM 24.1 °F - 10.9 °F 57% 30.13 in 10.0 mi Calm Calm - N/A   Clear
9:53 PM 21.9 °F 15.7 °F 10.0 °F 60% 30.14 in 10.0 mi South 4.6 mph - N/A   Clear
10:53 PM 21.0 °F - 10.0 °F 63% 30.16 in 10.0 mi Calm Calm - N/A   Clear
11:53 PM 21.0 °F 14.6 °F 10.0 °F 63% 30.15 in 10.0 mi SSW 4.6 mph - N/A   Clear